Regional Weather Roundup
Issued by NWS

Home | Current Version | Previous Version | Graphics & Text | Print | Product List | Glossary On
Versions: 1 2 3 4 5 6 7 8 9 10 11 12 13 14 15 16 17 18 19 20 21 22 23 24 25 26 27
000
ASUS45 KTFX 080810
RWRMT
MONTANA REGIONAL WEATHER ROUNDUP
NATIONAL WEATHER SERVICE GREAT FALLS MT
100 AM MST THU DEC 08 2016

NOTE: "FAIR" INDICATES FEW OR NO CLOUDS BELOW 12000 FEET WITH NO
SIGNIFICANT WEATHER AND/OR OBSTRUCTIONS TO VISIBILITY.

MTZ001>007-043-080900-
WEST OF THE DIVIDE

CITY           SKY/WX    TMP DP  RH WIND       PRES   REMARKS
KALISPELL      CLEAR      3  -5  69 N10       30.47S WCI -12
MISSOULA       MOCLDY     9   3  77 CALM      30.44S
BUTTE          PTCLDY     3  -4  72 CALM      30.25F
MULLAN PASS    CLEAR      0  -4  83 SE9       30.14F WCI -15
ANACONDA         N/A     -2  -9  71 SW6       30.29F WCI -14
DEER LODGE       N/A      0  -4  85 CALM      30.34S
EUREKA           N/A     -6 -11  77 CALM      30.54S
HAMILTON         N/A     10   3  72 CALM      30.39S
LIBBY            N/A     10   5  79 CALM      30.48S
PLAINS           N/A     12   4  70 CALM      30.45F
RONAN            N/A     12   6  77 CALM      30.41S
$$

MTZ008-052>055-080900-
SOUTHWEST MONTANA

CITY           SKY/WX    TMP DP  RH WIND       PRES   REMARKS
BOZEMAN        CLOUDY     7   0  73 CALM      30.38F
DILLON         CLOUDY    -2  -8  76 S7        30.30F WCI -15
W YELLOWSTONE  CLOUDY    -9 -13  84 CALM      30.24F
ENNIS          CLOUDY     1  -4  78 CALM      30.34F
THREE FORKS      N/A      6 -63   3 CALM      30.34F
$$

MTZ009-010-012-014-046-048-049-054-080900-
EAST SLOPES AND CENTRAL MONTANA

CITY           SKY/WX    TMP DP  RH WIND       PRES   REMARKS
CUT BANK       PTCLDY   -14 -19  79 CALM      30.50S
GREAT FALLS    CLOUDY     0  -7  72 NE7       30.50F WCI -13
MALMSTROM AFB  CLOUDY    -3  -6  85 NE7       30.54S WCI -16
HELENA         CLOUDY     3  -4  72 W5        30.44F
AUGUSTA        CLOUDY    -4  -8  84 NE3       30.41F
BOWMANS CRNR   FLURRIES  -4  -7  87 NE6       30.40F WCI -16
CHOTEAU          N/A     -2  -6  84 MISG      30.49F
CONRAD           N/A    -13 -19  75 W2        30.47S
FAIRFIELD      FLURRIES  -2  -8  76 E5        30.47F
RAYNESFORD     CLOUDY    -7 -12  78 E3        30.47S
ULM            CLOUDY    -1  -5  81 N8        30.51F WCI -15
$$

MTZ011-013-016-021-045-047-050-051-080900-
NORTH CENTRAL MONTANA

CITY           SKY/WX    TMP DP  RH WIND       PRES   REMARKS
HAVRE          CLOUDY    -8 -13  78 SW3       30.65S
LEWISTOWN      CLOUDY   -13 -18  78 SE6       30.45F WCI -27
N BAR RANCH    CLOUDY    -9 -18  64 NW3       30.44S
CHINOOK          N/A     -9 -15  77 CALM      30.67F
DENTON           N/A     -5 -11  77 SE8       30.49F WCI -21
GEYSER           N/A     -9 -13  81 W3        30.46S
GRASS RANGE    MOCLDY    -5 -10  80 W7        30.45S WCI -19
JUDITH GAP     CLOUDY    -2  -8  76 W3        30.39F
ROY              N/A     -5 -10  79 MISG      30.50F
STANFORD         N/A     -8 -12  85 NW2       30.42S
WINIFRED         N/A     -6  -9  86 MISG      30.50S
$$

MTZ017>020-022>027-061-062-080900-
NORTHEAST MONTANA

CITY           SKY/WX    TMP DP  RH WIND       PRES   REMARKS
GLASGOW        PTCLDY    -5 -10  79 NW8       30.63F WCI -20
JORDAN           N/A     -9 -14  78 W5        30.61S
SIDNEY         CLOUDY    -5 -11  75 W5        30.64F
WOLF POINT     CLOUDY    -2  -9  72 W9        30.67S WCI -18
PLENTYWOOD       N/A      0  -6  78 NW16      30.57R WCI -21
POPLAR           N/A      0  -8  71 NW8       30.66S WCI -15
SCOBEY           N/A     -2 -12  62 W12       30.51S WCI -19
$$

MTZ028>42-056>058-080900-
SOUTHCENTRAL AND SOUTHEAST MONTANA

CITY           SKY/WX    TMP DP  RH WIND       PRES   REMARKS
BAKER          CLOUDY    -1  -6  79 W16       30.54S WCI -21
BILLINGS       MOCLDY     2  -5  72 E3        30.51S
LIVINGSTON     CLOUDY     4  -1  80 E3        30.37F
MILES CITY     CLEAR     -4 -10  75 W6        30.62S WCI -16
BIG TIMBER     CLOUDY     0  -4  85 E3        30.43S
EKALAKA          N/A     -6 -14  68 W8        30.41S WCI -21
FORSYTH          N/A      0  -6  78 CALM      30.61S
HARLOWTON      FLURRIES   1  -6  73 E6        30.42F WCI -11
LAUREL           N/A      1  -9  63 NW1       30.43S
$$

REGIONAL REPORTS...DAKOTAS

CITY           SKY/WX    TMP DP  RH WIND       PRES   REMARKS
WILLISTON      CLOUDY    -1  -9  68 W12       30.61S WCI -18
MINOT          FLURRIES   5   0  79 W26       30.49R WCI -18
DICKINSON      CLEAR     -5 -10  79 NW16      30.49R WCI -27
BEACH            N/A     -4  -9  77 NW14      30.57S WCI -24
CROSBY         CLOUDY     0  -2  92 NW13      30.58S WCI -18
TIOGA          MOCLDY    -2  -4  92 W13       30.54S WCI -21
WATFORD CITY   CLOUDY    -2  -8  78 W14       30.60S WCI -21
BISMARCK       MIX PCPN   4  -1  80 NW21G28   30.51S WCI -17
GRAND FORKS    LGT SNOW  18  13  80 NW25      30.32R WCI   0
FARGO          LGT SNOW  17  11  77 NW25G33   30.30R WCI  -1
BUFFALO SD       N/A     -1  -6  79 W15       30.42F WCI -21
RAPID CITY     CLEAR      2  -6  69 N15       30.50R WCI -17
$$

REGIONAL REPORTS...WYOMING/IDAHO/WASHINGTON

CITY           SKY/WX    TMP DP  RH WIND       PRES   REMARKS
GILLETTE       CLOUDY    -6 -10  83 NW3       30.45S
SHERIDAN       CLOUDY    -9 -14  78 N5        30.48S
BUFFALO WY     CLOUDY    -4 -14  62 SW6       30.39F WCI -16
CODY           CLOUDY   -10 -13  86 CALM      30.37F
YELLOWSTONE LA   N/A    -10 -13  86 W3        30.17F
IDAHO FALLS    CLOUDY     5   0  79 N5        30.33F
SALMON         CLOUDY     0  -8  71 CALM      30.36S
BOISE          PTCLDY    18   9  68 S12       30.34F WCI   5
SPOKANE        PTCLDY    16   8  71 NE7       30.38F WCI   6
$$

REGIONAL REPORTS...ALBERTA

CITY           SKY/WX    TMP DP  RH WIND       PRES   REMARKS
EDMONTON       CLEAR    -11 -20  64 N7        30.71R WCI -26
CALGARY        CRYSTALS -11 -17  77 CALM      30.52F
LETHBRIDGE     CLEAR    -20 -26  76 SW7       30.60F WCI -37
MEDICINE HAT   CLEAR    -17 -22  76 S2        30.68S
WATERTON GATE    N/A    -31 -38  68 NE1         N/A
CARDSTON         N/A    -22 -29  69 CALM        N/A
MILK RIVER       N/A    -17 -22  76 NW7         N/A  WCI -33
ONEFOUR          N/A    -15 -18  84 NW8         N/A  WCI -32
$$

REGIONAL REPORTS...SASKATCHEWAN

CITY           SKY/WX    TMP DP  RH WIND       PRES   REMARKS
SWIFT CURRENT  CLOUDY    -9 -13  84 W12       30.56S WCI -29
REGINA         MOCLDY    -2  -8  78 NW15      30.58S WCI -22
SASKATOON      CRYSTALS  -6  -9  84 NW6       30.67R WCI -18
VAL MARIE        N/A    -11 -17  77 W3          N/A
ROCKGLEN         N/A     -6  -9  84 NW13G18     N/A  WCI -25
ASSINIBOIA       N/A     -9 -15  77 NW5         N/A
$$




USA.gov is the U.S. government's official web portal to all federal, state and local government web resources and services.